Content
SEND FEEDBACK

Daily
Averages
Monthly
Summary
Romania

TIMISOARA, ROMANIA


Home > Europe > Romania
Elevation: 335 feet     Latitude: 45 45N     Longitude: 021 14E

WEATHER
 
SELECT A DAY
Number of Records: 276,280;   Date Range: 7/1/96 - 7/23/14
 
SHARE

PRINT THIS DATA

[ ← Previous Day ]
WEATHER ALMANAC - JANUARY 28, 2014
[ Next Day → ]
[ °C ]   °F
Weather ElementAverageHighLow
Temperature27.3 °F30.2 °F (1:00 pm)24.8 °F (12:30 am)
Dewpoint25.4 °F28.4 °F (4:00 pm)23 °F (12:30 am)
Humidity92.8 %100 % (10:00 am)80 % (1:00 pm)
Barometer29.65 in29.68 in (12:30 am)29.62 in (4:00 pm)
Wind Speed4.2 mph8.1 mph (11:30 am)
Weather ElementAverage
Visibility2.4 mi
Wind DirectionESE (110.2 °)

Weather ElementTotal
Precipitation---
Heating Degree Days37.5 (Base 65)
Averaged from 47 records on January 28, 2014
WEATHER CONDITIONS BREAKOUT
WIND DIRECTION BREAKOUT
WEATHER BY HOUR - JANUARY 28, 2014
[ °C ]   °F
Local TimeTemperatureDewpointHumidityBarometerVisibilityWind DirectionWind SpeedGust SpeedPrecipitationEventsConditions
12:30 AM24.8 °F23.0 °F93 %29.68 in1.9 miCalmSnowLight Snow
1:00 AM24.8 °F23.0 °F93 %29.68 in1.9 miSW (220°)2.3 mphSnowLight Snow
1:30 AM24.8 °F23.0 °F93 %29.65 in1.9 miSW (230°)1.2 mphSnowLight Snow
2:00 AM24.8 °F23.0 °F93 %29.65 in2.2 miWSW (240°)1.2 mphSnowLight Snow
2:30 AM24.8 °F23.0 °F93 %29.65 in2.2 miCalmSnowLight Snow
3:00 AM24.8 °F23.0 °F93 %29.65 in1.9 miCalmSnowLight Snow
3:30 AM24.8 °F23.0 °F93 %29.65 in1.2 miSSE (150°)2.3 mphSnowLight Snow
4:00 AM24.8 °F23.0 °F93 %29.65 in1.2 miSouth (170°)2.3 mphSnowLight Snow
4:30 AM24.8 °F23.0 °F93 %29.65 in1.2 miSouth (170°)4.6 mphSnowLight Snow
5:00 AM24.8 °F23.0 °F93 %29.65 in1.2 miSouth (180°)3.5 mphSnowLight Snow
5:30 AM24.8 °F23.0 °F93 %29.65 in1.2 miSouth (170°)3.5 mphSnowLight Snow
6:00 AM24.8 °F23.0 °F93 %29.65 in1.2 miSSE (150°)3.5 mphSnowLight Snow
6:30 AM24.8 °F23.0 °F93 %29.65 in1.2 miSSE (160°)4.6 mphSnowLight Snow
7:00 AM24.8 °F23.0 °F93 %29.65 in1.2 miSSE (160°)4.6 mphSnowLight Snow
7:30 AM24.8 °F23.0 °F93 %29.65 in1.2 miSouth (170°)3.5 mphSnowLight Snow
8:00 AM24.8 °F23.0 °F93 %29.65 in0.9 miSSE (150°)2.3 mphSnowLight Snow
8:30 AM24.8 °F23.0 °F93 %29.65 in1.2 miSE (140°)3.5 mphSnowLight Snow
9:00 AM24.8 °F23.0 °F93 %29.68 in1.2 miSE (140°)4.6 mphSnowLight Snow
9:30 AM24.8 °F23.0 °F93 %29.68 in1.2 miSE (130°)4.6 mphSnowLight Snow
10:00 AM24.8 °F24.8 °F100 %29.68 in1.6 miEast (100°)4.6 mphSnowLight Snow
10:30 AM24.8 °F24.8 °F100 %29.68 in1.6 miESE (110°)4.6 mphSnowLight Snow
11:00 AM26.6 °F24.8 °F93 %29.68 in1.6 miEast (100°)5.8 mphPartly Cloudy
11:30 AM26.6 °F26.6 °F100 %29.68 in1.9 miESE (110°)8.1 mphPartly Cloudy
12:00 PM28.4 °F26.6 °F93 %29.68 in2.5 miESE (110°)6.9 mphPartly Cloudy
12:30 PM28.4 °F26.6 °F93 %29.65 in3.1 miESE (120°)5.8 mphScattered Clouds
1:00 PM30.2 °F24.8 °F80 %29.65 in3.1 miSE (140°)4.6 mphScattered Clouds
1:30 PM30.2 °F24.8 °F80 %29.65 in3.1 miSSE (150°)4.6 mphMostly Cloudy
2:00 PM30.2 °F24.8 °F80 %29.65 in4.3 miVariable3.5 mphMostly Cloudy
2:30 PM30.2 °F24.8 °F80 %29.65 in5.0 miSSE (160°)3.5 mphMostly Cloudy
3:00 PM30.2 °F26.6 °F86 %29.65 in4.3 miEast (80°)3.5 mphOvercast
3:30 PM30.2 °F26.6 °F86 %29.65 in3.7 miEast (90°)3.5 mphOvercast
4:00 PM30.2 °F28.4 °F93 %29.62 in3.1 miENE (70°)4.6 mphMostly Cloudy
4:30 PM30.2 °F28.4 °F93 %29.62 in3.1 miENE (60°)3.5 mphMostly Cloudy
5:00 PM28.4 °F26.6 °F93 %29.62 in3.1 miENE (70°)3.5 mphMostly Cloudy
5:30 PM28.4 °F26.6 °F93 %29.65 in3.1 miNNE (30°)3.5 mphOvercast
6:00 PM28.4 °F28.4 °F100 %29.62 in2.8 miNNE (30°)6.9 mphOvercast
6:30 PM28.4 °F28.4 °F100 %29.65 in2.8 miNE (40°)5.8 mphOvercast
7:00 PM28.4 °F28.4 °F100 %29.62 in2.8 miNE (40°)6.9 mphOvercast
7:30 PM28.4 °F28.4 °F100 %29.62 in2.8 miNNE (30°)6.9 mphOvercast
8:00 PM28.4 °F28.4 °F100 %29.62 in3.1 miNE (40°)6.9 mphOvercast
8:30 PM30.2 °F28.4 °F93 %29.62 in3.1 miNE (40°)5.8 mphOvercast
9:00 PM30.2 °F28.4 °F93 %29.62 in3.1 miENE (60°)4.6 mphOvercast
9:30 PM30.2 °F28.4 °F93 %29.62 in3.7 miEast (80°)3.5 mphOvercast
10:00 PM30.2 °F28.4 °F93 %29.62 in3.7 miESE (120°)4.6 mphOvercast
10:30 PM30.2 °F28.4 °F93 %29.62 in3.1 miENE (70°)5.8 mphOvercast
11:00 PM30.2 °F28.4 °F93 %29.62 in3.1 miNE (40°)6.9 mphOvercast
11:30 PM30.2 °F28.4 °F93 %29.62 in3.7 miNorth (360°)4.6 mphOvercast
Hourly data recorded from LRTR, located miles away from Timisoara, Romania







STORIES FROM OUR PARTNERS